Tracking 28091 objects as of 29-Sep-2023
HD Live streaming from Space Station
objects crossing your sky now

H-2A R/B

Track H-2A R/B now!
10-day predictions


NORAD ID: 43682
Int'l Code: 2018-084L
Perigee: 509.2 km
Apogee: 578.4 km
Inclination: 98.9 °
Period: 95.4 minutes
Semi major axis: 6914 km
RCS: Unknown
Launch date: October 29, 2018
Source: Japan (JPN)
Launch site: TANEGASHIMA SPACE CENTER (TNSTA)

Note: This is a ROCKET BODY
Your satellite tracking list
Your tracking list is empty




NASA's NSSDC Master Catalog

Two Line Element Set (TLE):
1 43682U 18084L   23272.58826391  .00008548  00000-0  51782-3 0  9993
2 43682  98.8869 313.2164 0049996 157.6701 202.6716 15.09850609269966
Source of the keplerian elements: AFSPC